Location: Gadern
(49.5873°N, 8.8138°E)
Time: 09:52:35
(UTC+00:00)

NOSS 2-1 (E) - Pass Details

Date: 19 May 2025
Orbit: 385 x 1749 km, 63.3° (Epoch: 07 May)

Event Time Altitude Azimuth Distance (km) Brightness Sun altitude
Exits shadow 22:21:20 47° 87° (E) 565 3.2 -19.2°
Drops below altitude 10° 22:23:47 10° 50° (NE) 1,437 5.8 -19.3°
Sets 22:25:44 0° 46° (NE) 2,279 6.9 -19.3°
